Time,TemperatureF,DewpointF,PressureIn,WindDirection,WindDirectionDegrees,WindSpeedMPH,WindSpeedGustMPH,Humidity,HourlyPrecipIn,Conditions,Clouds,dailyrainin,SolarRadiationWatts/m^2,SoftwareType,DateUTC
2013-03-17 00:02:00,49.0,40.0,-100.00,NE,41,3.0,11.0,72,0.00,,,0.00,0.000000,,2013-03-17 05:02:00,
2013-03-17 00:12:00,49.0,40.0,-100.00,NE,41,3.0,11.0,72,0.00,,,0.00,0.000000,,2013-03-17 05:12:00,
2013-03-17 00:22:00,49.0,40.0,-100.00,NE,41,3.0,11.0,72,0.00,,,0.00,0.000000,,2013-03-17 05:22:00,
2013-03-17 00:52:00,48.0,39.0,-100.00,NE,56,5.0,10.0,72,0.00,,,0.00,0.000000,,2013-03-17 05:52:00,
2013-03-17 01:02:00,48.0,39.0,-100.00,NE,56,5.0,10.0,72,0.00,,,0.00,0.000000,,2013-03-17 06:02:00,
2013-03-17 01:12:00,48.0,39.0,-100.00,NE,56,5.0,10.0,72,0.00,,,0.00,0.000000,,2013-03-17 06:12:00,
2013-03-17 01:22:00,48.0,39.0,-100.00,NE,56,5.0,10.0,72,0.00,,,0.00,0.000000,,2013-03-17 06:22:00,
2013-03-17 01:52:00,47.0,40.0,-100.00,NNE,29,4.0,11.0,76,0.00,,,0.00,0.000000,,2013-03-17 06:52:00,
2013-03-17 02:02:00,47.0,40.0,-100.00,NNE,29,4.0,11.0,76,0.00,,,0.00,0.000000,,2013-03-17 07:02:00,
2013-03-17 02:12:00,47.0,40.0,-100.00,NNE,29,4.0,11.0,76,0.00,,,0.00,0.000000,,2013-03-17 07:12:00,
2013-03-17 02:22:00,47.0,40.0,-100.00,NNE,29,4.0,11.0,76,0.00,,,0.00,0.000000,,2013-03-17 07:22:00,
2013-03-17 02:52:00,46.0,40.0,-100.00,ENE,59,4.0,8.0,78,0.00,,,0.00,0.000000,,2013-03-17 07:52:00,
2013-03-17 03:03:00,46.0,40.0,-100.00,ENE,59,4.0,8.0,78,0.00,,,0.00,0.000000,,2013-03-17 08:03:00,
2013-03-17 03:13:00,46.0,40.0,-100.00,ENE,59,4.0,8.0,78,0.00,,,0.00,0.000000,,2013-03-17 08:13:00,
2013-03-17 03:22:00,46.0,40.0,-100.00,ENE,59,4.0,8.0,78,0.00,,,0.00,0.000000,,2013-03-17 08:22:00,
2013-03-17 03:52:00,46.0,40.0,-100.00,NE,48,6.0,12.0,78,0.00,,,0.00,0.000000,,2013-03-17 08:52:00,
2013-03-17 04:03:00,46.0,40.0,-100.00,NE,48,6.0,12.0,78,0.00,,,0.00,0.000000,,2013-03-17 09:03:00,
2013-03-17 04:12:00,46.0,40.0,-100.00,NE,48,6.0,12.0,78,0.00,,,0.00,0.000000,,2013-03-17 09:12:00,
2013-03-17 04:22:00,46.0,40.0,-100.00,NE,48,6.0,12.0,78,0.00,,,0.00,0.000000,,2013-03-17 09:22:00,
2013-03-17 04:53:00,45.0,39.0,-100.00,North,4,4.0,12.0,79,0.00,,,0.00,0.000000,,2013-03-17 09:53:00,
2013-03-17 05:03:00,45.0,39.0,-100.00,North,4,4.0,12.0,79,0.00,,,0.00,0.000000,,2013-03-17 10:03:00,
2013-03-17 05:13:00,45.0,39.0,-100.00,North,4,4.0,12.0,79,0.00,,,0.00,0.000000,,2013-03-17 10:13:00,
2013-03-17 05:23:00,45.0,39.0,-100.00,North,4,4.0,12.0,79,0.00,,,0.00,0.000000,,2013-03-17 10:23:00,
2013-03-17 05:52:00,43.0,38.0,-100.00,NE,48,5.0,14.0,84,0.00,,,0.00,0.000000,,2013-03-17 10:52:00,
2013-03-17 06:02:00,43.0,38.0,-100.00,NE,48,5.0,14.0,84,0.00,,,0.00,0.000000,,2013-03-17 11:02:00,
2013-03-17 06:12:00,43.0,38.0,-100.00,NE,48,5.0,14.0,84,0.00,,,0.00,0.000000,,2013-03-17 11:12:00,
2013-03-17 06:22:00,43.0,38.0,-100.00,NE,48,5.0,14.0,84,0.00,,,0.00,0.000000,,2013-03-17 11:22:00,
2013-03-17 06:52:00,43.0,39.0,-100.00,NE,40,7.0,16.0,86,0.00,,,0.00,0.000000,,2013-03-17 11:52:00,
2013-03-17 07:02:00,43.0,39.0,-100.00,NE,40,7.0,16.0,86,0.00,,,0.00,0.000000,,2013-03-17 12:02:00,
2013-03-17 07:12:00,43.0,39.0,-100.00,NE,40,7.0,16.0,86,0.00,,,0.00,0.000000,,2013-03-17 12:12:00,
2013-03-17 07:22:00,43.0,39.0,-100.00,NE,40,7.0,16.0,86,0.00,,,0.00,0.000000,,2013-03-17 12:22:00,
2013-03-17 07:52:00,43.0,39.0,-100.00,ENE,61,6.0,13.0,87,0.00,,,0.00,2.000000,,2013-03-17 12:52:00,
2013-03-17 08:02:00,43.0,39.0,-100.00,ENE,61,6.0,13.0,87,0.00,,,0.00,2.000000,,2013-03-17 13:02:00,
2013-03-17 08:12:00,43.0,39.0,-100.00,ENE,61,6.0,13.0,87,0.00,,,0.00,2.000000,,2013-03-17 13:12:00,
2013-03-17 08:22:00,43.0,39.0,-100.00,ENE,61,6.0,13.0,87,0.00,,,0.00,2.000000,,2013-03-17 13:22:00,
2013-03-17 08:52:00,43.0,39.0,-100.00,NE,55,7.0,13.0,87,0.00,,,0.00,19.000000,,2013-03-17 13:52:00,
2013-03-17 09:02:00,43.0,39.0,-100.00,NE,55,7.0,13.0,87,0.00,,,0.00,19.000000,,2013-03-17 14:02:00,
2013-03-17 09:12:00,43.0,39.0,-100.00,NE,55,7.0,13.0,87,0.00,,,0.00,19.000000,,2013-03-17 14:12:00,
2013-03-17 09:22:00,43.0,39.0,-100.00,NE,55,7.0,13.0,87,0.00,,,0.00,19.000000,,2013-03-17 14:22:00,
2013-03-17 09:53:00,44.0,40.0,-100.00,ENE,64,5.0,14.0,87,0.00,,,-99.99,42.000000,,2013-03-17 14:53:00,
2013-03-17 10:02:00,44.0,40.0,-100.00,ENE,64,5.0,14.0,87,0.00,,,-99.99,42.000000,,2013-03-17 15:02:00,
2013-03-17 10:12:00,44.0,40.0,-100.00,ENE,64,5.0,14.0,87,0.00,,,-99.99,42.000000,,2013-03-17 15:12:00,
2013-03-17 10:23:00,44.0,40.0,-100.00,ENE,64,5.0,14.0,87,0.00,,,-99.99,42.000000,,2013-03-17 15:23:00,
2013-03-17 10:53:00,45.0,41.0,-100.00,NE,46,6.0,15.0,87,0.00,,,0.00,64.000000,,2013-03-17 15:53:00,
2013-03-17 11:03:00,45.0,41.0,-100.00,NE,46,6.0,15.0,87,0.00,,,0.00,64.000000,,2013-03-17 16:03:00,
2013-03-17 11:12:00,45.0,41.0,-100.00,NE,46,6.0,15.0,87,0.00,,,0.00,64.000000,,2013-03-17 16:12:00,
2013-03-17 11:22:00,45.0,41.0,-100.00,NE,46,6.0,15.0,87,0.00,,,0.00,64.000000,,2013-03-17 16:22:00,
2013-03-17 11:52:00,46.0,42.0,-100.00,NE,56,6.0,16.0,86,0.00,,,0.00,107.000000,,2013-03-17 16:52:00,
2013-03-17 12:02:00,46.0,42.0,-100.00,NE,56,6.0,16.0,86,0.00,,,0.00,107.000000,,2013-03-17 17:02:00,
2013-03-17 12:12:00,46.0,42.0,-100.00,NE,56,6.0,16.0,86,0.00,,,0.00,107.000000,,2013-03-17 17:12:00,
2013-03-17 12:22:00,46.0,42.0,-100.00,NE,56,6.0,16.0,86,0.00,,,0.00,107.000000,,2013-03-17 17:22:00,
2013-03-17 12:53:00,46.0,41.0,-100.00,NE,47,5.0,13.0,84,0.00,,,0.00,83.000000,,2013-03-17 17:53:00,
2013-03-17 13:02:00,46.0,41.0,-100.00,NE,47,5.0,13.0,84,0.00,,,0.00,83.000000,,2013-03-17 18:02:00,
2013-03-17 13:12:00,46.0,41.0,-100.00,NE,47,5.0,13.0,84,0.00,,,0.00,83.000000,,2013-03-17 18:12:00,
2013-03-17 13:22:00,46.0,41.0,-100.00,NE,47,5.0,13.0,84,0.00,,,0.00,83.000000,,2013-03-17 18:22:00,
2013-03-17 13:52:00,44.0,43.0,-100.00,NNE,23,5.0,14.0,95,0.01,,,0.01,41.000000,,2013-03-17 18:52:00,
2013-03-17 14:02:00,44.0,43.0,-100.00,NNE,23,5.0,14.0,95,0.01,,,0.01,41.000000,,2013-03-17 19:02:00,
2013-03-17 14:12:00,44.0,43.0,-100.00,NNE,23,5.0,14.0,95,0.01,,,0.01,41.000000,,2013-03-17 19:12:00,
2013-03-17 14:22:00,44.0,43.0,-100.00,NNE,23,5.0,14.0,95,0.01,,,0.01,41.000000,,2013-03-17 19:22:00,
2013-03-17 14:53:00,44.0,42.0,-100.00,NE,54,6.0,16.0,94,0.02,,,0.03,64.000000,,2013-03-17 19:53:00,
2013-03-17 15:02:00,44.0,42.0,-100.00,NE,54,6.0,16.0,94,0.02,,,0.03,64.000000,,2013-03-17 20:02:00,
2013-03-17 15:12:00,44.0,42.0,-100.00,NE,54,6.0,16.0,94,0.02,,,0.03,64.000000,,2013-03-17 20:12:00,
2013-03-17 15:22:00,44.0,42.0,-100.00,NE,54,6.0,16.0,94,0.02,,,0.03,64.000000,,2013-03-17 20:22:00,
2013-03-17 15:52:00,44.0,43.0,-100.00,East,79,6.0,17.0,95,0.04,,,0.07,70.000000,,2013-03-17 20:52:00,
2013-03-17 16:03:00,44.0,43.0,-100.00,East,79,6.0,17.0,95,0.04,,,0.07,70.000000,,2013-03-17 21:03:00,
2013-03-17 16:12:00,44.0,43.0,-100.00,East,79,6.0,17.0,95,0.04,,,0.07,70.000000,,2013-03-17 21:12:00,
2013-03-17 16:22:00,44.0,43.0,-100.00,East,79,6.0,17.0,95,0.04,,,0.07,70.000000,,2013-03-17 21:22:00,
2013-03-17 16:52:00,44.0,43.0,-100.00,ENE,78,5.0,10.0,96,0.03,,,0.10,43.000000,,2013-03-17 21:52:00,
2013-03-17 17:03:00,44.0,43.0,-100.00,ENE,78,5.0,10.0,96,0.03,,,0.10,43.000000,,2013-03-17 22:03:00,
2013-03-17 17:12:00,44.0,43.0,-100.00,ENE,78,5.0,10.0,96,0.03,,,0.10,43.000000,,2013-03-17 22:12:00,
2013-03-17 17:23:00,44.0,43.0,-100.00,ENE,78,5.0,10.0,96,0.03,,,0.10,43.000000,,2013-03-17 22:23:00,
2013-03-17 17:53:00,44.0,43.0,-100.00,East,94,6.0,16.0,95,0.02,,,0.12,83.000000,,2013-03-17 22:53:00,
2013-03-17 18:02:00,44.0,43.0,-100.00,East,94,6.0,16.0,95,0.02,,,0.12,83.000000,,2013-03-17 23:02:00,
2013-03-17 18:12:00,44.0,43.0,-100.00,East,94,6.0,16.0,95,0.02,,,0.12,83.000000,,2013-03-17 23:12:00,
2013-03-17 18:22:00,44.0,43.0,-100.00,East,94,6.0,16.0,95,0.02,,,0.12,83.000000,,2013-03-17 23:22:00,
2013-03-17 18:53:00,44.0,43.0,-100.00,ENE,63,7.0,13.0,95,0.00,,,0.12,57.000000,,2013-03-17 23:53:00,
2013-03-17 19:03:00,44.0,43.0,-100.00,ENE,63,7.0,13.0,95,0.00,,,0.12,57.000000,,2013-03-18 00:03:00,
2013-03-17 19:12:00,44.0,43.0,-100.00,ENE,63,7.0,13.0,95,0.00,,,0.12,57.000000,,2013-03-18 00:12:00,
2013-03-17 19:22:00,44.0,43.0,-100.00,ENE,63,7.0,13.0,95,0.00,,,0.12,57.000000,,2013-03-18 00:22:00,
2013-03-17 19:53:00,44.0,43.0,-100.00,ENE,66,4.0,13.0,96,0.00,,,0.12,12.000000,,2013-03-18 00:53:00,
2013-03-17 20:02:00,44.0,43.0,-100.00,ENE,66,4.0,13.0,96,0.00,,,0.12,12.000000,,2013-03-18 01:02:00,
2013-03-17 20:12:00,44.0,43.0,-100.00,ENE,66,4.0,13.0,96,0.00,,,0.12,12.000000,,2013-03-18 01:12:00,
2013-03-17 20:22:00,44.0,43.0,-100.00,ENE,66,4.0,13.0,96,0.00,,,0.12,12.000000,,2013-03-18 01:22:00,
2013-03-17 20:52:00,43.0,42.0,-100.00,East,98,6.0,11.0,96,0.00,,,0.12,0.000000,,2013-03-18 01:52:00,
2013-03-17 21:02:00,43.0,42.0,-100.00,East,98,6.0,11.0,96,0.00,,,0.12,0.000000,,2013-03-18 02:02:00,
2013-03-17 21:12:00,43.0,42.0,-100.00,East,98,6.0,11.0,96,0.00,,,0.12,0.000000,,2013-03-18 02:12:00,
2013-03-17 21:22:00,43.0,42.0,-100.00,East,98,6.0,11.0,96,0.00,,,0.12,0.000000,,2013-03-18 02:22:00,
2013-03-17 21:52:00,44.0,43.0,-100.00,East,86,5.0,11.0,96,0.00,,,0.12,0.000000,,2013-03-18 02:52:00,
2013-03-17 22:03:00,44.0,43.0,-100.00,East,86,5.0,11.0,96,0.00,,,0.12,0.000000,,2013-03-18 03:03:00,
2013-03-17 22:11:00,44.0,43.0,-100.00,East,86,5.0,11.0,96,0.00,,,0.12,0.000000,,2013-03-18 03:11:00,
2013-03-17 22:22:00,44.0,43.0,-100.00,East,86,5.0,11.0,96,0.00,,,0.12,0.000000,,2013-03-18 03:22:00,
2013-03-17 22:53:00,44.0,43.0,-100.00,ESE,103,5.0,9.0,96,0.00,,,0.12,0.000000,,2013-03-18 03:53:00,
2013-03-17 23:03:00,44.0,43.0,-100.00,ESE,103,5.0,9.0,96,0.00,,,0.12,0.000000,,2013-03-18 04:03:00,
2013-03-17 23:13:00,44.0,43.0,-100.00,ESE,103,5.0,9.0,96,0.00,,,0.12,0.000000,,2013-03-18 04:13:00,
2013-03-17 23:23:00,44.0,43.0,-100.00,ESE,103,5.0,9.0,96,0.00,,,0.12,0.000000,,2013-03-18 04:23:00,
2013-03-17 23:53:00,45.0,44.0,-100.00,ESE,103,5.0,9.0,95,0.00,,,0.12,0.000000,,2013-03-18 04:53:00,